| time (UTC) | temp C | wind direction | speed KPH | gust KPH | rain 1hr cm | rain 24hr cm | rain mn cm | humidity % | barometer mb |
| 20260510065055 | 13 | 36 | 0.0 | 0.0 | 0.00 | 0.00 | 0.00 | 44 | 1009.0 |
| 20260510065047 | 13 | 36 | 0.0 | 0.0 | 0.00 | 0.00 | 0.00 | 44 | 1009.0 |
| 20260510064443 | 13 | 36 | 0.0 | 0.0 | 0.00 | 0.00 | 0.00 | 45 | 1009.0 |
| 20260510063248 | 12 | 36 | 0.0 | 0.0 | 0.00 | 0.00 | 0.00 | 46 | 1009.0 |
| 20260510063240 | 12 | 36 | 0.0 | 0.0 | 0.00 | 0.00 | 0.00 | 46 | 1009.0 |
| 20260510062644 | 12 | 37 | 0.0 | 0.0 | 0.00 | 0.00 | 0.00 | 46 | 1009.0 |
| 20260510062636 | 12 | 37 | 0.0 | 0.0 | 0.00 | 0.00 | 0.00 | 46 | 1009.0 |
| 20260510062032 | 11 | 37 | 0.0 | 0.0 | 0.00 | 0.00 | 0.00 | 46 | 1009.0 |
| 20260510060830 | 11 | 37 | 0.0 | 0.0 | 0.00 | 0.00 | 0.00 | 47 | 1009.0 |
| 20260510060228 | 11 | 36 | 0.0 | 0.0 | 0.00 | 0.00 | 0.00 | 48 | 1009.0 |
| 20260510055026 | 11 | 37 | 0.0 | 0.0 | 0.00 | 0.00 | 0.00 | 49 | 1009.0 |
| 20260510054425 | 10 | 37 | 3.2 | 4.8 | 0.00 | 0.00 | 0.00 | 49 | 1009.0 |
| 20260510054420 | 10 | 37 | 3.2 | 4.8 | 0.00 | 0.00 | 0.00 | 49 | 1009.0 |
| 20260510052620 | 8 | 37 | 3.2 | 4.8 | 0.00 | 0.00 | 0.00 | 49 | 1009.0 |
| 20260510052613 | 8 | 37 | 3.2 | 4.8 | 0.00 | 0.00 | 0.00 | 49 | 1009.0 |
| 20260510052019 | 8 | 36 | 4.8 | 4.8 | 0.00 | 0.00 | 0.00 | 48 | 1009.0 |
| 20260510052012 | 8 | 36 | 4.8 | 4.8 | 0.00 | 0.00 | 0.00 | 48 | 1009.0 |
| 20260510051418 | 8 | 36 | 0.0 | 4.8 | 0.00 | 0.00 | 0.00 | 47 | 1009.0 |
| 20260510051411 | 8 | 36 | 0.0 | 4.8 | 0.00 | 0.00 | 0.00 | 47 | 1009.0 |
| 20260510050203 | 8 | 36 | 3.2 | 4.8 | 0.00 | 0.00 | 0.00 | 47 | 1009.0 |
| 20260510045609 | 8 | 36 | 3.2 | 6.4 | 0.00 | 0.00 | 0.00 | 47 | 1009.0 |
| 20260510045601 | 8 | 36 | 3.2 | 6.4 | 0.00 | 0.00 | 0.00 | 47 | 1009.0 |
| 20260510043805 | 7 | 36 | 4.8 | 4.8 | 0.00 | 0.00 | 0.00 | 48 | 1010.0 |
| 20260510043756 | 7 | 36 | 4.8 | 4.8 | 0.00 | 0.00 | 0.00 | 48 | 1010.0 |
| 20260510043202 | 7 | 36 | 0.0 | 4.8 | 0.00 | 0.00 | 0.00 | 46 | 1010.0 |
| 20260510043153 | 7 | 36 | 0.0 | 4.8 | 0.00 | 0.00 | 0.00 | 46 | 1010.0 |
| 20260510041956 | 7 | 36 | 4.8 | 4.8 | 0.00 | 0.00 | 0.00 | 45 | 1010.0 |
| 20260510041950 | 7 | 36 | 4.8 | 4.8 | 0.00 | 0.00 | 0.00 | 45 | 1010.0 |
| 20260510040748 | 7 | 36 | 4.8 | 4.8 | 0.00 | 0.00 | 0.00 | 46 | 1010.0 |
| 20260510040155 | 6 | 37 | 4.8 | 4.8 | 0.00 | 0.00 | 0.00 | 45 | 1010.0 |
| 20260510040146 | 6 | 37 | 4.8 | 4.8 | 0.00 | 0.00 | 0.00 | 45 | 1010.0 |
| 20260510034937 | 6 | 36 | 4.8 | 4.8 | 0.00 | 0.00 | 0.00 | 43 | 1010.0 |
| 20260510034334 | 6 | 36 | 4.8 | 4.8 | 0.00 | 0.00 | 0.00 | 43 | 1010.0 |
| 20260510033731 | 6 | 37 | 4.8 | 4.8 | 0.00 | 0.00 | 0.00 | 42 | 1010.0 |
| 20260510033129 | 6 | 36 | 4.8 | 4.8 | 0.00 | 0.00 | 0.00 | 41 | 1010.0 |
| 20260510032539 | 7 | 36 | 4.8 | 4.8 | 0.00 | 0.00 | 0.00 | 41 | 1010.0 |
| 20260510032529 | 7 | 36 | 4.8 | 4.8 | 0.00 | 0.00 | 0.00 | 41 | 1010.0 |
| 20260510030731 | 7 | 36 | 0.0 | 0.0 | 0.00 | 0.00 | 0.00 | 41 | 1010.0 |
| 20260510030129 | 6 | 36 | 0.0 | 4.8 | 0.00 | 0.00 | 0.00 | 41 | 1010.0 |
| 20260510025529 | 6 | 36 | 4.8 | 4.8 | 0.00 | 0.00 | 0.00 | 41 | 1010.0 |
| 20260510023730 | 7 | 36 | 3.2 | 3.2 | 0.00 | 0.00 | 0.00 | 40 | 1010.0 |
| 20260510023138 | 7 | 36 | 0.0 | 4.8 | 0.00 | 0.00 | 0.00 | 40 | 1010.0 |
| 20260510023126 | 7 | 36 | 0.0 | 4.8 | 0.00 | 0.00 | 0.00 | 40 | 1010.0 |
| 20260510022523 | 7 | 36 | 4.8 | 4.8 | 0.00 | 0.00 | 0.00 | 40 | 1010.0 |
| 20260510021322 | 7 | 36 | 4.8 | 4.8 | 0.00 | 0.00 | 0.00 | 39 | 1010.0 |
| 20260510020724 | 7 | 36 | 4.8 | 4.8 | 0.00 | 0.00 | 0.00 | 39 | 1010.0 |
| 20260510020126 | 7 | 36 | 3.2 | 3.2 | 0.00 | 0.00 | 0.00 | 38 | 1010.0 |
| 20260510020123 | 7 | 36 | 3.2 | 3.2 | 0.00 | 0.00 | 0.00 | 38 | 1010.0 |
| 20260510015535 | 7 | 36 | 4.8 | 4.8 | 0.00 | 0.00 | 0.00 | 38 | 1010.0 |
| 20260510015523 | 7 | 36 | 4.8 | 4.8 | 0.00 | 0.00 | 0.00 | 38 | 1010.0 |
| 20260510014333 | 7 | 36 | 4.8 | 4.8 | 0.00 | 0.00 | 0.00 | 38 | 1010.0 |
| 20260510014323 | 7 | 36 | 4.8 | 4.8 | 0.00 | 0.00 | 0.00 | 38 | 1010.0 |
| 20260510013729 | 7 | 36 | 4.8 | 4.8 | 0.00 | 0.00 | 0.00 | 38 | 1011.0 |
| 20260510013723 | 7 | 36 | 4.8 | 4.8 | 0.00 | 0.00 | 0.00 | 38 | 1011.0 |
| 20260510012515 | 7 | 36 | 4.8 | 4.8 | 0.00 | 0.00 | 0.00 | 37 | 1011.0 |
| 20260510011922 | 7 | 36 | 3.2 | 4.8 | 0.00 | 0.00 | 0.00 | 37 | 1011.0 |
| 20260510011913 | 7 | 36 | 3.2 | 4.8 | 0.00 | 0.00 | 0.00 | 37 | 1011.0 |
| 20260510011310 | 7 | 36 | 3.2 | 4.8 | 0.00 | 0.00 | 0.00 | 37 | 1011.0 |
| 20260510010707 | 7 | 36 | 4.8 | 4.8 | 0.00 | 0.00 | 0.00 | 37 | 1010.0 |
| 20260510005505 | 7 | 36 | 3.2 | 4.8 | 0.00 | 0.00 | 0.00 | 34 | 1010.0 |
| 20260510004904 | 8 | 36 | 4.8 | 4.8 | 0.00 | 0.00 | 0.00 | 33 | 1010.0 |
| 20260510003705 | 8 | 36 | 0.0 | 0.0 | 0.00 | 0.00 | 0.00 | 34 | 1010.0 |
| 20260510003104 | 8 | 36 | 0.0 | 0.0 | 0.00 | 0.00 | 0.00 | 33 | 1010.0 |
| 20260510002505 | 8 | 36 | 0.0 | 0.0 | 0.00 | 0.00 | 0.00 | 34 | 1010.0 |
| 20260510001906 | 8 | 36 | 0.0 | 0.0 | 0.00 | 0.00 | 0.00 | 33 | 1010.0 |
| 20260510000105 | 9 | 36 | 4.8 | 4.8 | 0.00 | 0.00 | 0.00 | 31 | 1011.0 |
| 20260509235514 | 9 | 36 | 4.8 | 4.8 | 0.00 | 0.00 | 0.00 | 31 | 1011.0 |
| 20260509235505 | 9 | 36 | 4.8 | 4.8 | 0.00 | 0.00 | 0.00 | 31 | 1011.0 |
| 20260509234904 | 8 | 37 | 4.8 | 4.8 | 0.00 | 0.00 | 0.00 | 30 | 1011.0 |
| 20260509234310 | 8 | 36 | 4.8 | 4.8 | 0.00 | 0.00 | 0.00 | 29 | 1011.0 |
| 20260509234304 | 8 | 36 | 4.8 | 4.8 | 0.00 | 0.00 | 0.00 | 29 | 1011.0 |
| 20260509233110 | 10 | 36 | 3.2 | 4.8 | 0.00 | 0.00 | 0.00 | 28 | 1011.0 |
| 20260509233101 | 10 | 36 | 3.2 | 4.8 | 0.00 | 0.00 | 0.00 | 28 | 1011.0 |
| 20260509232501 | 10 | 37 | 0.0 | 3.2 | 0.00 | 0.00 | 0.00 | 27 | 1011.0 |
| 20260509231254 | 10 | 36 | 0.0 | 0.0 | 0.00 | 0.00 | 0.00 | 27 | 1011.0 |
| 20260509230650 | 10 | 36 | 0.0 | 0.0 | 0.00 | 0.00 | 0.00 | 26 | 1011.0 |
| 20260509230056 | 11 | 36 | 0.0 | 3.2 | 0.00 | 0.00 | 0.00 | 26 | 1011.0 |
| 20260509230047 | 11 | 36 | 0.0 | 3.2 | 0.00 | 0.00 | 0.00 | 26 | 1011.0 |
| 20260509224852 | 11 | 36 | 0.0 | 0.0 | 0.00 | 0.00 | 0.00 | 26 | 1011.0 |
| 20260509224845 | 11 | 36 | 0.0 | 0.0 | 0.00 | 0.00 | 0.00 | 26 | 1011.0 |
| 20260509224241 | 11 | 36 | 0.0 | 0.0 | 0.00 | 0.00 | 0.00 | 26 | 1011.0 |
| 20260509223639 | 11 | 36 | 0.0 | 0.0 | 0.00 | 0.00 | 0.00 | 26 | 1011.0 |
| 20260509223033 | 11 | 36 | 0.0 | 0.0 | 0.00 | 0.00 | 0.00 | 26 | 1011.0 |
| 20260509221224 | 12 | 36 | 0.0 | 0.0 | 0.00 | 0.00 | 0.00 | 25 | 1011.0 |
| 20260509220629 | 12 | 36 | 0.0 | 0.0 | 0.00 | 0.00 | 0.00 | 25 | 1011.0 |
| 20260509220619 | 12 | 36 | 0.0 | 0.0 | 0.00 | 0.00 | 0.00 | 25 | 1011.0 |
| 20260509220018 | 12 | 36 | 0.0 | 3.2 | 0.00 | 0.00 | 0.00 | 26 | 1011.0 |
| 20260509215412 | 12 | 36 | 0.0 | 0.0 | 0.00 | 0.00 | 0.00 | 23 | 1011.0 |
| 20260509214813 | 12 | 36 | 0.0 | 0.0 | 0.00 | 0.00 | 0.00 | 22 | 1011.0 |
| 20260509214214 | 12 | 36 | 0.0 | 0.0 | 0.00 | 0.00 | 0.00 | 22 | 1011.0 |
| 20260509213611 | 12 | 36 | 0.0 | 0.0 | 0.00 | 0.00 | 0.00 | 20 | 1011.0 |
| 20260509213018 | 12 | 36 | 0.0 | 0.0 | 0.00 | 0.00 | 0.00 | 20 | 1011.0 |
| 20260509213009 | 12 | 36 | 0.0 | 0.0 | 0.00 | 0.00 | 0.00 | 20 | 1011.0 |
| 20260509212421 | 13 | 36 | 0.0 | 0.0 | 0.00 | 0.00 | 0.00 | 20 | 1011.0 |
| 20260509212408 | 13 | 36 | 0.0 | 0.0 | 0.00 | 0.00 | 0.00 | 20 | 1011.0 |
| 20260509211806 | 13 | 36 | 0.0 | 0.0 | 0.00 | 0.00 | 0.00 | 17 | 1011.0 |
| 20260509211207 | 14 | 37 | 0.0 | 0.0 | 0.00 | 0.00 | 0.00 | 17 | 1011.0 |
| 20260509210608 | 15 | 36 | 3.2 | 4.8 | 0.00 | 0.00 | 0.00 | 17 | 1011.0 |
| 20260509210006 | 15 | 37 | 6.4 | 8.0 | 0.00 | 0.00 | 0.00 | 16 | 1011.0 |
| 20260509204806 | 15 | 38 | 6.4 | 8.0 | 0.00 | 0.00 | 0.00 | 16 | 1011.0 |
| 20260509204216 | 15 | 44 | 8.0 | 9.7 | 0.00 | 0.00 | 0.00 | 16 | 1011.0 |
| 20260509204206 | 15 | 44 | 8.0 | 9.7 | 0.00 | 0.00 | 0.00 | 16 | 1011.0 |
| 20260509203609 | 15 | 32 | 6.4 | 9.7 | 0.00 | 0.00 | 0.00 | 16 | 1011.0 |
| 20260509203007 | 15 | 74 | 8.0 | 8.0 | 0.00 | 0.00 | 0.00 | 16 | 1011.0 |
| 20260509202418 | 15 | 44 | 8.0 | 8.0 | 0.00 | 0.00 | 0.00 | 16 | 1011.0 |
| 20260509202407 | 15 | 44 | 8.0 | 8.0 | 0.00 | 0.00 | 0.00 | 16 | 1011.0 |
| 20260509201816 | 16 | 54 | 8.0 | 9.7 | 0.00 | 0.00 | 0.00 | 16 | 1011.0 |
| 20260509201806 | 16 | 54 | 8.0 | 9.7 | 0.00 | 0.00 | 0.00 | 16 | 1011.0 |
| 20260509201201 | 16 | 37 | 9.7 | 9.7 | 0.00 | 0.00 | 0.00 | 16 | 1011.0 |
| 20260509200557 | 15 | 53 | 8.0 | 8.0 | 0.00 | 0.00 | 0.00 | 16 | 1011.0 |
| 20260509195956 | 15 | 53 | 8.0 | 8.0 | 0.00 | 0.00 | 0.00 | 16 | 1011.0 |
| 20260509194747 | 15 | 44 | 6.4 | 8.0 | 0.00 | 0.00 | 0.00 | 16 | 1011.0 |
| 20260509194145 | 15 | 40 | 6.4 | 8.0 | 0.00 | 0.00 | 0.00 | 16 | 1011.0 |
| 20260509193544 | 15 | 44 | 8.0 | 8.0 | 0.00 | 0.00 | 0.00 | 16 | 1012.0 |
| 20260509192940 | 15 | 40 | 6.4 | 6.4 | 0.00 | 0.00 | 0.00 | 16 | 1012.0 |
| 20260509192337 | 15 | 28 | 6.4 | 6.4 | 0.00 | 0.00 | 0.00 | 16 | 1012.0 |
| 20260509191131 | 15 | 34 | 6.4 | 6.4 | 0.00 | 0.00 | 0.00 | 16 | 1012.0 |
| 20260509190526 | 15 | 42 | 4.8 | 6.4 | 0.00 | 0.00 | 0.00 | 16 | 1011.0 |
| 20260509185322 | 15 | 37 | 6.4 | 6.4 | 0.00 | 0.00 | 0.00 | 16 | 1011.0 |
| 20260509184114 | 16 | 29 | 6.4 | 6.4 | 0.00 | 0.00 | 0.00 | 16 | 1011.0 |
| 20260509183513 | 16 | 45 | 4.8 | 4.8 | 0.00 | 0.00 | 0.00 | 16 | 1011.0 |
| 20260509182309 | 17 | 45 | 4.8 | 6.4 | 0.00 | 0.00 | 0.00 | 16 | 1011.0 |
| 20260509181711 | 17 | 47 | 4.8 | 4.8 | 0.00 | 0.00 | 0.00 | 15 | 1011.0 |
| 20260509181114 | 17 | 47 | 4.8 | 6.4 | 0.00 | 0.00 | 0.00 | 15 | 1011.0 |
| 20260509181109 | 17 | 47 | 4.8 | 6.4 | 0.00 | 0.00 | 0.00 | 15 | 1011.0 |
| 20260509180509 | 17 | 48 | 4.8 | 6.4 | 0.00 | 0.00 | 0.00 | 15 | 1011.0 |
| 20260509175310 | 18 | 39 | 8.0 | 8.0 | 0.00 | 0.00 | 0.00 | 15 | 1011.0 |
| 20260509174711 | 18 | 44 | 8.0 | 8.0 | 0.00 | 0.00 | 0.00 | 15 | 1011.0 |
| 20260509174114 | 18 | 41 | 8.0 | 8.0 | 0.00 | 0.00 | 0.00 | 15 | 1011.0 |
| 20260509174108 | 18 | 41 | 8.0 | 8.0 | 0.00 | 0.00 | 0.00 | 15 | 1011.0 |
| 20260509173507 | 18 | 48 | 6.4 | 6.4 | 0.00 | 0.00 | 0.00 | 15 | 1011.0 |
| 20260509171056 | 20 | 35 | 4.8 | 8.0 | 0.00 | 0.00 | 0.00 | 15 | 1011.0 |
| 20260509170453 | 20 | 53 | 4.8 | 4.8 | 0.00 | 0.00 | 0.00 | 15 | 1011.0 |
| 20260509165855 | 20 | 45 | 4.8 | 4.8 | 0.00 | 0.00 | 0.00 | 15 | 1011.0 |
| 20260509165848 | 20 | 45 | 4.8 | 4.8 | 0.00 | 0.00 | 0.00 | 15 | 1011.0 |
| 20260509165248 | 20 | 45 | 3.2 | 3.2 | 0.00 | 0.00 | 0.00 | 15 | 1011.0 |
| 20260509163436 | 18 | 45 | 0.0 | 4.8 | 0.00 | 0.00 | 0.00 | 15 | 1011.0 |
| 20260509162231 | 18 | 45 | 3.2 | 4.8 | 0.00 | 0.00 | 0.00 | 15 | 1012.0 |
| 20260509161026 | 19 | 45 | 4.8 | 4.8 | 0.00 | 0.00 | 0.00 | 15 | 1012.0 |
| 20260509155816 | 20 | 57 | 6.4 | 6.4 | 0.00 | 0.00 | 0.00 | 15 | 1012.0 |
| 20260509155212 | 20 | 48 | 4.8 | 4.8 | 0.00 | 0.00 | 0.00 | 15 | 1012.0 |
| 20260509154608 | 20 | 35 | 4.8 | 6.4 | 0.00 | 0.00 | 0.00 | 14 | 1012.0 |
| 20260509152755 | 21 | 51 | 8.0 | 8.0 | 0.00 | 0.00 | 0.00 | 14 | 1012.0 |
| 20260509152152 | 22 | 53 | 8.0 | 8.0 | 0.00 | 0.00 | 0.00 | 13 | 1012.0 |
| 20260509150954 | 22 | 211 | 4.8 | 4.8 | 0.00 | 0.00 | 0.00 | 13 | 1012.0 |
| 20260509145753 | 22 | 200 | 4.8 | 4.8 | 0.00 | 0.00 | 0.00 | 13 | 1012.0 |
| 20260509145151 | 22 | 198 | 4.8 | 4.8 | 0.00 | 0.00 | 0.00 | 13 | 1012.0 |
| 20260509144549 | 22 | 120 | 4.8 | 4.8 | 0.00 | 0.00 | 0.00 | 13 | 1012.0 |
| 20260509143946 | 22 | 120 | 3.2 | 4.8 | 0.00 | 0.00 | 0.00 | 13 | 1012.0 |
| 20260509143343 | 22 | 60 | 0.0 | 3.2 | 0.00 | 0.00 | 0.00 | 13 | 1013.0 |
| 20260509142739 | 22 | 60 | 3.2 | 4.8 | 0.00 | 0.00 | 0.00 | 13 | 1013.0 |
| 20260509141537 | 22 | 61 | 4.8 | 4.8 | 0.00 | 0.00 | 0.00 | 13 | 1013.0 |
| 20260509140934 | 22 | 307 | 4.8 | 4.8 | 0.00 | 0.00 | 0.00 | 13 | 1013.0 |
| 20260509140332 | 21 | 40 | 4.8 | 4.8 | 0.00 | 0.00 | 0.00 | 14 | 1013.0 |
| 20260509135731 | 21 | 40 | 4.8 | 4.8 | 0.00 | 0.00 | 0.00 | 14 | 1013.0 |
| 20260509134525 | 21 | 53 | 4.8 | 4.8 | 0.00 | 0.00 | 0.00 | 14 | 1013.0 |
| 20260509133318 | 21 | 304 | 4.8 | 4.8 | 0.00 | 0.00 | 0.00 | 14 | 1013.0 |
| 20260509131504 | 21 | 144 | 3.2 | 4.8 | 0.00 | 0.00 | 0.00 | 14 | 1013.0 |
| 20260509130903 | 21 | 51 | 4.8 | 4.8 | 0.00 | 0.00 | 0.00 | 14 | 1013.0 |
| 20260509125702 | 21 | 207 | 3.2 | 6.4 | 0.00 | 0.00 | 0.00 | 14 | 1013.0 |
| 20260509123303 | 21 | 60 | 0.0 | 4.8 | 0.00 | 0.00 | 0.00 | 14 | 1014.0 |
| 20260509122702 | 21 | 71 | 4.8 | 4.8 | 0.00 | 0.00 | 0.00 | 14 | 1014.0 |
| 20260509120900 | 21 | 279 | 4.8 | 4.8 | 0.00 | 0.00 | 0.00 | 14 | 1014.0 |
| 20260509120255 | 20 | 230 | 4.8 | 4.8 | 0.00 | 0.00 | 0.00 | 14 | 1014.0 |
| 20260509115050 | 19 | 159 | 6.4 | 6.4 | 0.00 | 0.00 | 0.00 | 15 | 1014.0 |
| 20260509114450 | 20 | 198 | 6.4 | 6.4 | 0.00 | 0.00 | 0.00 | 15 | 1014.0 |
| 20260509113844 | 20 | 198 | 6.4 | 6.4 | 0.00 | 0.00 | 0.00 | 15 | 1014.0 |
| 20260509112038 | 20 | 176 | 6.4 | 8.0 | 0.00 | 0.00 | 0.00 | 15 | 1014.0 |
| 20260509111440 | 20 | 211 | 3.2 | 4.8 | 0.00 | 0.00 | 0.00 | 15 | 1014.0 |
| 20260509110246 | 19 | 196 | 3.2 | 4.8 | 0.00 | 0.00 | 0.00 | 15 | 1015.0 |
| 20260509110236 | 19 | 196 | 3.2 | 4.8 | 0.00 | 0.00 | 0.00 | 15 | 1015.0 |
| 20260509105637 | 18 | 225 | 8.0 | 8.0 | 0.00 | 0.00 | 0.00 | 15 | 1015.0 |
| 20260509105039 | 19 | 184 | 4.8 | 6.4 | 0.00 | 0.00 | 0.00 | 15 | 1015.0 |
| 20260509105034 | 19 | 184 | 4.8 | 6.4 | 0.00 | 0.00 | 0.00 | 15 | 1015.0 |
| 20260509103227 | 19 | 177 | 3.2 | 4.8 | 0.00 | 0.00 | 0.00 | 15 | 1015.0 |
| 20260509102623 | 19 | 207 | 6.4 | 6.4 | 0.00 | 0.00 | 0.00 | 15 | 1015.0 |
| 20260509102029 | 19 | 201 | 4.8 | 4.8 | 0.00 | 0.00 | 0.00 | 15 | 1015.0 |
| 20260509102021 | 19 | 201 | 4.8 | 4.8 | 0.00 | 0.00 | 0.00 | 15 | 1015.0 |
| 20260509101415 | 18 | 199 | 3.2 | 4.8 | 0.00 | 0.00 | 0.00 | 15 | 1015.0 |
| 20260509100812 | 18 | 174 | 6.4 | 6.4 | 0.00 | 0.00 | 0.00 | 15 | 1015.0 |
| 20260509100210 | 18 | 211 | 6.4 | 6.4 | 0.00 | 0.00 | 0.00 | 15 | 1015.0 |
| 20260509095613 | 18 | 188 | 6.4 | 6.4 | 0.00 | 0.00 | 0.00 | 17 | 1015.0 |
| 20260509095607 | 18 | 188 | 6.4 | 6.4 | 0.00 | 0.00 | 0.00 | 17 | 1015.0 |
| 20260509095006 | 18 | 176 | 6.4 | 6.4 | 0.00 | 0.00 | 0.00 | 15 | 1015.0 |
| 20260509093803 | 18 | 202 | 0.0 | 8.0 | 0.00 | 0.00 | 0.00 | 22 | 1015.0 |
| 20260509093211 | 18 | 347 | 4.8 | 4.8 | 0.00 | 0.00 | 0.00 | 20 | 1015.0 |
| 20260509093203 | 18 | 347 | 4.8 | 4.8 | 0.00 | 0.00 | 0.00 | 20 | 1015.0 |
| 20260509092602 | 18 | 340 | 4.8 | 4.8 | 0.00 | 0.00 | 0.00 | 23 | 1015.0 |
| 20260509092007 | 18 | 215 | 4.8 | 4.8 | 0.00 | 0.00 | 0.00 | 20 | 1015.0 |
| 20260509090201 | 18 | 47 | 4.8 | 4.8 | 0.00 | 0.00 | 0.00 | 25 | 1015.0 |
| 20260509083801 | 17 | 335 | 3.2 | 3.2 | 0.00 | 0.00 | 0.00 | 30 | 1015.0 |
| 20260509082001 | 16 | 161 | 0.0 | 3.2 | 0.00 | 0.00 | 0.00 | 29 | 1015.0 |
| 20260509074951 | 15 | 21 | 3.2 | 3.2 | 0.00 | 0.00 | 0.00 | 51 | 1015.0 |
| 20260509073744 | 13 | 228 | 3.2 | 3.2 | 0.00 | 0.00 | 0.00 | 51 | 1015.0 |
| 20260509072535 | 12 | 229 | 0.0 | 0.0 | 0.00 | 0.00 | 0.00 | 51 | 1015.0 |
| 20260509071933 | 12 | 228 | 0.0 | 0.0 | 0.00 | 0.00 | 0.00 | 50 | 1015.0 |
| 20260509071329 | 12 | 229 | 0.0 | 0.0 | 0.00 | 0.00 | 0.00 | 50 | 1015.0 |
| 20260509070126 | 12 | 228 | 0.0 | 4.8 | 0.00 | 0.00 | 0.00 | 52 | 1015.0 |
| 20260509065519 | 12 | 212 | 4.8 | 4.8 | 0.00 | 0.00 | 0.00 | 55 | 1015.0 |